Regional Weather Roundup
Issued by NWS

Home | Current Version | Previous Version | Text Only | Print | Product List | Glossary On
Versions: 1 2 3 4 5 6 7 8 9 10 11 12 13 14 15 16 17 18 19 20 21 22 23 24 25 26 27 28 29 30 31 32 33 34 35 36 37 38 39 40 41 42 43 44 45 46 47 48 49 50
000
ASUS42 KTBW 081516
RWRFL
FLORIDA REGIONAL WEATHER ROUNDUP
NATIONAL WEATHER SERVICE TAMPA BAY RUSKIN FL
1000 AM EST MON FEB 08 2016

NOTE: "FAIR" INDICATES FEW OR NO CLOUDS BELOW 12,000 FEET WITH NO
SIGNIFICANT WEATHER AND/OR OBSTRUCTIONS TO VISIBILITY.


FLZ001>010-012>015-112-114-115-081600-
PANHANDLE FLORIDA

CITY           SKY/WX    TMP DP  RH WIND       PRES   REMARKS
PENSACOLA      SUNNY     55  43  63 W17G23    30.02F
PENSACOLA NAS  MOSUNNY   57  44  62 W9G20     30.02F
MILTON NAS     MOSUNNY   51  40  65 W10       30.01
CRESTVIEW      SUNNY     51  38  60 SW10      30.02F
DUKE FIELD     MOSUNNY   53  38  56 W12       29.99F
VALPARAISO     MOSUNNY   54  40  59 W13G24    30.01S
MARY ESTHER    SUNNY     55  41  59 W15G23    30.01F
TRI COUNTY     FAIR      51  37  58 SW8       30.01S
PANAMA CITY    FAIR      56  42  59 SW13      30.02S
TYNDALL AFB    SUNNY     59  43  54 W17       30.04S
APALACHICOLA   SUNNY     58  45  62 W8        30.06R

STATION/POSITION SKY/WX   TEMP    WIND        PRES    WAVE   SWELL
                          AIR SEA DIR/SP/G            HT/PER HT/PER
                          (F)     (DEG/KT/KT) (MB)    (FT/S) (FT/S)
30.1N   87.6W              57 61  260/ 21/ 25 1016.5F   4/ 4
28.8N   86.0W              61 69  270/ 19/ 23 1018.9R   5/ 6
PANAMA CITY BEAC           56 59  270/ 20/ 25 1016.9S
CAPE SAN BLAS    NOT AVBL
TOWER C          NOT AVBL
28.5N   84.5W              63 68  250/ 14/ 17 1018.6R   4/ 5   2/ 9

$$
FLZ011-016>038-118-127-128-134-139-239-081600-
NORTH FLORIDA

CITY           SKY/WX    TMP DP  RH WIND       PRES   REMARKS
MARIANNA       SUNNY     52  38  58 SW10      30.01R
TALLAHASSEE    MOSUNNY   52  36  54 SW9       30.03S
PERRY          SUNNY     55  37  51 SW7       30.05S
LIVE OAK         N/A     52  36  54 W6        30.05S
CROSS CITY       N/A     56  41  57 W10G17    30.06S
LAKE CITY      FAIR      48  36  61 W8        30.03F WCI  45
GAINESVILLE    SUNNY     52  33  48 W7        30.06S
WILLISTON      FAIR      57  39  51 W7        30.08S
KEYSTONE HEIGH FAIR      52  28  40 W10       30.04F
PALATKA        FAIR      50  36  57 W7        30.06S
MAYPORT NAS    MOSUNNY   53  31  42 SW9       30.01F
JACKSONVILLE   MOSUNNY   52  32  46 W9        30.01S
JAX NAS        MOSUNNY   53  30  41 SW10      30.03S
JAX CRAIG      SUNNY     53  30  41 SW9       30.02S
JAX CECIL      SUNNY     52  34  50 W12       30.02F
FERNANDINA BEA FAIR      54  32  43 SW9       29.99S
ST AUGUSTINE   SUNNY     54  35  48 W8        30.04F
PALM COAST     SUNNY     52  37  58 W7        30.06R

STATION/POSITION SKY/WX   TEMP    WIND        PRES    WAVE   SWELL
                          AIR SEA DIR/SP/G            HT/PER HT/PER
                          (F)     (DEG/KT/KT) (MB)    (FT/S) (FT/S)
SHELL POINT                49     280/  7/ 11 1016.1
KEATON BEACH               54     270/ 12/ 14 1017.9S
CEDAR KEY                  56     300/  7/ 10 1018.8R
FERNANDINA                 47 54  240/  4/  8 1015.9F
30.7N   81.3W                 54                N/A     3/14   2/14
MAYPORT                    48 55  260/  8/ 10 1016.2S
31.4N   80.9W              50 55  240/ 14/ 16 1014.6S   3/14   2/14
ST AUGUSTINE               53 57  260/  7/  9 1018.0R

$$
FLZ040-043>046-052-053-057-058-063-144-081600-
INTERIOR CENTRAL FLORIDA

CITY           SKY/WX    TMP DP  RH WIND       PRES   REMARKS
OCALA          SUNNY     54  36  50 NW7       30.07S
THE VILLAGES     N/A     55  36  47 VRB6      29.99R
LEESBURG       SUNNY     55  36  48 W7        30.09S
SANFORD        SUNNY     56  36  47 W8        30.08S
ORLANDO EXEC   SUNNY     56  38  50 W10       30.10R
ORLANDO INTL   MOSUNNY   54  40  59 W8        30.10R
WINTER HAVEN   SUNNY     56  41  57 SW6       30.13R
LAKELAND       MOSUNNY   54  39  58 SW5       30.12R
BARTOW         MOSUNNY   54  37  54 SW5       30.13R
OKEECHOBEE     SUNNY     54  41  62 W6        30.15R

$$
FLZ041-047-054-059-064-141-147-081600-
EAST CENTRAL FLORIDA

CITY           SKY/WX    TMP DP  RH WIND       PRES   REMARKS
ORMOND BEACH   SUNNY     52  37  58 W12       30.06S
DAYTONA BEACH  MOSUNNY   54  36  50 W8        30.07R
DELAND           N/A     54  36  50 W7        30.09S
NEW SMYRNA BEA SUNNY     52  36  54 W9        30.06R
JFK SPACE CTR  SUNNY     55  38  53 W10       30.08R
TITUSVILLE     SUNNY     52  41  66 W9        30.10R
CAPE CANAVERAL SUNNY     55  38  53 W10       30.09R
PATRICK AFB    SUNNY     56  39  52 W10       30.10R
MELBOURNE      SUNNY     57  38  48 W9        30.11R
VERO BEACH     SUNNY     55  37  50 W7        30.12R
FT PIERCE      SUNNY     54  39  57 W9        30.13R

STATION/POSITION SKY/WX   TEMP    WIND        PRES    WAVE   SWELL
                          AIR SEA DIR/SP/G            HT/PER HT/PER
                          (F)     (DEG/KT/KT) (MB)    (FT/S) (FT/S)
28.5N   80.2W              56 72  280/ 16/ 21 1018.2R
28.9N   78.5W              62 74              1016.7R
TRIDENT PIER               51 64  260/  9/ 12 1018.5R
28.4N   80.5W                 64                N/A     3/13   2/13
27.5N   80.2W                 71                N/A     6/15   5/15

$$
FLZ050-056-061-142-242-148-248-149-249-151-251-155-255-
160-260-081600-
WEST CENTRAL FLORIDA

CITY           SKY/WX    TMP DP  RH WIND       PRES   REMARKS
CRYSTAL RIVER  FAIR      55  43  62 W3        30.09R
INVERNESS      FAIR      55  41  58 SW3       30.10R
BROOKSVILLE    SUNNY     56  45  66 S3        30.11R
ZEPHYRHILLS    FAIR      53  44  71 S5        30.11S
CLEARWATER AIR FAIR      57  43  58 SW3       30.10R
ST PETE CLEARW SUNNY     58  43  57 S7        30.11R
TAMPA INTL     PTSUNNY   57  45  64 S10       30.12R
TAMPA EXEC     SUNNY     59  43  55 SW7       30.12R
PLANT CITY     MOSUNNY   59  43  55 SW5       30.13R
MACDILL AFB    SUNNY     58  50  75 S7        30.11R
PETER O KNIGHT SUNNY     59  48  67 S7        30.12R
ST PETERSBURG  MOSUNNY   57  45  64 S9        30.10R
SARASOTA       MOSUNNY   59  41  51 SE3       30.12R
VENICE         FAIR      59  45  58 SE3       30.15R

STATION/POSITION SKY/WX   TEMP    WIND        PRES    WAVE   SWELL
                          AIR SEA DIR/SP/G            HT/PER HT/PER
                          (F)     (DEG/KT/KT) (MB)    (FT/S) (FT/S)
CEDAR KEY                  56     300/  7/ 10 1018.8R
28.5N   84.5W              63 68  250/ 14/ 17 1018.6R   4/ 5   2/ 9
27.3N   84.2W                 71                N/A     5/ 8
CLEARWATER BEACH           56 55  160/  4/  5 1019.0R
MIDDLE TAMPA BAY           54     180/  8/  9 1019.7R
VENICE                     60 61  170/  3/  4 1020.0R

$$
FLZ066-069-070-075>078-162-262-165-265-081600-
SOUTHWEST FLORIDA AND KEYS

CITY           SKY/WX    TMP DP  RH WIND       PRES   REMARKS
PUNTA GORDA    MOSUNNY   58  45  62 CALM      30.16R
FT MYERS       MOSUNNY   59  42  53 E3        30.14R
SOUTHWEST INTL SUNNY     60  43  53 CALM      30.15R
NAPLES         MOSUNNY   59  42  53 E3        30.15R
MARCO ISLAND   MOSUNNY   59  39  47 E7        30.15S
MARATHON       MOSUNNY   59  38  45 NE9       30.17R
KEY WEST NAS   MOSUNNY   62  48  60 NE9       30.17R
KEY WEST INTL  MOSUNNY   61  50  67 E7        30.17R

STATION/POSITION SKY/WX   TEMP    WIND        PRES    WAVE   SWELL
                          AIR SEA DIR/SP/G            HT/PER HT/PER
                          (F)     (DEG/KT/KT) (MB)    (FT/S) (FT/S)
VENICE                     60 61  170/  3/  4 1020.0R
NAPLES                        63              1020.5R
26.0N   85.6W              67 79  300/ 14/ 19 1021.2R   4/ 8   3/ 8
DRY TORTUGAS     NOT AVBL
SAND KEY                   59      70/ 10/ 14 1021.9R
LONG KEY                   56 63  360/  5/  8 1022.5R
MOLASSES REEF              56 72  350/ 13/ 15 1021.1R

$$
FLZ067-068-071>074-168-172>174-081600-
SOUTHEAST FLORIDA

CITY           SKY/WX    TMP DP  RH WIND       PRES   REMARKS
W PALM BEACH   MOSUNNY   57  32  38 W13       30.15R
FT LAUDER-EXEC MOSUNNY   58  34  40 NW10      30.15R
FT LAUDERDALE  MOSUNNY   58  35  42 NW8       30.15R
POMPANO BEACH  SUNNY     58  35  42 W12       30.15R
PEMBROKE PINES SUNNY     59  34  39 NW10      30.17R
OPA LOCKA      SUNNY     60  36  40 NW10      30.16R
MIAMI          MOSUNNY   59  35  40 NW6       30.16R
WEST KENDALL   SUNNY     58  38  47 NW14      30.17R
HOMESTEAD      SUNNY     58  36  44 NW10      30.16R

STATION/POSITION SKY/WX   TEMP    WIND        PRES    WAVE   SWELL
                          AIR SEA DIR/SP/G            HT/PER HT/PER
                          (F)     (DEG/KT/KT) (MB)    (FT/S) (FT/S)
VIRGINIA KEY               55 70  310/  6/ 10 1020.6R
LAKE WORTH               C1F1M1C2F2M2C3F3C4F4M3C5F5M4C6F6M5C7F7M6C8!


USA.gov is the U.S. government's official web portal to all federal, state and local government web resources and services.